Location: Boiro
(42.6475°N, 8.8834°W)
Time: 08:08:43
(UTC+01:00)

SR - Pass Details

Date: 06 December 2021
Orbit: 583 x 872 km, 66.7° (Epoch: 16 January)

Event Time Altitude Azimuth Distance (km) Brightness Sun altitude
Rises 07:33:30 0° 344° (NNW) 2,818 - -13.8°
Exits shadow 07:34:12 - 348° (NNW) 2,603 ? -13.7°
Reaches altitude 10° 07:36:58 10° 14° (NNE) 1,934 ? -13.2°
Maximum altitude 07:38:54 13° 41° (NE) 1,782 ? -12.9°
Drops below altitude 10° 07:40:50 10° 67° (ENE) 1,971 ? -12.5°
Sets 07:44:27 0° 97° (E) 2,926 ? -11.9°
